Location: Lower Kingswood
(51.2667°N, 0.2167°W)
Time: 11:39:08
(UTC+00:00)

NOSS 3-1 (C) - Pass Details

Date: 26 September 2023
Orbit: 672 x 1534 km, 63.4° (Epoch: 03 November)

Event Time Altitude Azimuth Distance (km) Brightness Sun altitude
Rises 02:55:21 0° 313° (NW) 3,709 6.4 -26.9°
Reaches altitude 10° 02:57:46 10° 317° (NW) 2,871 5.9 -26.6°
Maximum altitude 03:04:42 69° 40° (NE) 1,300 4.2 -25.7°
Drops below altitude 10° 03:13:11 10° 124° (SE) 3,483 6.6 -24.6°
Sets 03:16:22 0° 127° (SE) 4,544 7.3 -24.1°
